Skip Page Navigation
NASA JPL Caltech
NASA Logo - Jet Propulsion Laboratory + View the NASA Portal
+ Near-Earth Object (NEO) Program
Search JPL
JPL Home Earth Solar System Stars & Galaxies Technology
JPL Solar System Dynamics
BODIES ORBITS EPHEMERIDES TOOLS PHYSICAL DATA DISCOVERY FAQ SITE MAP
JPL Small-Body Database Browser
Search: [ help ]  
11971 (1994 UJ2)
Classification: Main-belt Asteroid          SPK-ID: 2011971
Ephemeris | Orbit Diagram | Orbital Elements | Physical Parameters | Discovery Circumstances | Close-Approach Data ]

[ show orbit diagram ]
Orbital Elements at Epoch 2457000.5 (2014-Dec-09.0) TDB
Reference: JPL 8 (heliocentric ecliptic J2000)
 Element Value Uncertainty (1-sigma)   Units 
e .1523045960345848 1.0777e-07  
a 2.978307424827109 3.5166e-08 AU
q 2.524697515622012 3.3707e-07 AU
i 14.00331935572012 8.6758e-06 deg
node 55.68861062149099 3.6841e-05 deg
peri 326.2575293783291 4.4352e-05 deg
M 347.5084158089686 2.8388e-05 deg
tp 2457065.642996505963
(2015-Feb-12.14299651)
0.00014863 JED
period 1877.382274618487
5.14
3.3251e-05
9.104e-08
d
yr
n .1917563646291257 3.3962e-09 deg/d
Q 3.431917334032206 4.0522e-08 AU
  Orbit Determination Parameters
   # obs. used (total)      815  
   data-arc span      16788 days (45.96 yr)  
   first obs. used      1968-10-15  
   last obs. used      2014-10-02  
   planetary ephem.      DE431  
   SB-pert. ephem.      SB431-BIG16  
   condition code      0  
   fit RMS      .50234  
   data source      ORB  
   producer      Otto Matic  
   solution date      2014-Oct-09 14:21:45  

Additional Information
 Earth MOID = 1.54187 AU 
 T_jup = 3.198 
[ show covariance matrix ]

Ephemeris | Orbit Diagram | Orbital Elements | Physical Parameters | Discovery Circumstances | Close-Approach Data ]

Physical Parameter Table
Parameter Symbol Value Units Sigma Reference Notes
absolute magnitude H 12.5 mag n/a MPO266022  

11971 (1994 UJ2)          Discovered 1994-Oct-31 by Ueda, S., Kaneda, H. at Kushiro (399)
Reference: 19991026/Numbers.arcLast Updated: 2004-04-19

[ show close-approach data ]
Alternate Designations
 1994 UJ2 = 1968 TF = 1979 YU9 = 1989 UR6 = 1989 YL8 
Ephemeris | Orbit Diagram | Orbital Elements | Physical Parameters | Discovery Circumstances | Close-Approach Data ]
ABOUT SSD CREDITS/AWARDS PRIVACY/COPYRIGHT GLOSSARY LINKS
FirstGov 2014-Oct-31 18:00 UT
(server date/time)  
NASA Home Page
Site Manager:   Donald K. Yeomans
Webmaster  Alan B. Chamberlin